Time,TemperatureF,DewpointF,PressureIn,WindDirection,WindDirectionDegrees,WindSpeedMPH,WindSpeedGustMPH,Humidity,HourlyPrecipIn,Conditions,Clouds,dailyrainin,SoftwareType,DateUTC
2013-03-16 00:07:00,32.9,32.0,29.82,SE,144,1.0,-999.0,96,-99.99,,,0.05,weatherlink.com 1.10,2013-03-16 04:07:00,
2013-03-16 00:22:00,32.9,32.0,29.81,SE,144,2.0,-999.0,96,-99.99,,,0.05,weatherlink.com 1.10,2013-03-16 04:22:00,
2013-03-16 00:37:00,32.8,32.0,29.81,SE,145,0.0,-999.0,96,-99.99,,,0.05,weatherlink.com 1.10,2013-03-16 04:37:00,
2013-03-16 00:52:00,32.8,32.0,29.81,SE,145,0.0,-999.0,96,-99.99,,,0.00,weatherlink.com 1.10,2013-03-16 04:52:00,
2013-03-16 01:08:00,32.8,32.0,29.81,SE,145,0.0,-999.0,96,-99.99,,,0.00,weatherlink.com 1.10,2013-03-16 05:08:00,
2013-03-16 01:23:00,32.7,32.0,29.81,SE,145,1.0,-999.0,96,-99.99,,,0.00,weatherlink.com 1.10,2013-03-16 05:23:00,
2013-03-16 01:38:00,32.7,32.0,29.80,SE,145,0.0,-999.0,96,-99.99,,,0.00,weatherlink.com 1.10,2013-03-16 05:38:00,
2013-03-16 01:53:00,31.9,31.0,29.80,SSE,149,4.0,-999.0,96,-99.99,,,0.00,weatherlink.com 1.10,2013-03-16 05:53:00,
2013-03-16 02:08:00,31.0,30.0,29.80,ESE,123,7.0,-999.0,96,-99.99,,,0.00,weatherlink.com 1.10,2013-03-16 06:08:00,
2013-03-16 02:23:00,29.9,29.0,29.80,SSE,150,8.0,-999.0,96,-99.99,,,0.00,weatherlink.com 1.10,2013-03-16 06:23:00,
2013-03-16 02:38:00,29.6,29.0,29.79,ESE,112,4.0,-999.0,96,-99.99,,,0.00,weatherlink.com 1.10,2013-03-16 06:38:00,
2013-03-16 02:53:00,28.9,28.0,29.79,SE,136,2.0,-999.0,96,-99.99,,,0.00,weatherlink.com 1.10,2013-03-16 06:53:00,
2013-03-16 03:08:00,28.6,28.0,29.78,SSE,165,7.0,-999.0,96,-99.99,,,0.00,weatherlink.com 1.10,2013-03-16 07:08:00,
2013-03-16 03:23:00,28.5,28.0,29.79,SE,124,5.0,-999.0,96,-99.99,,,0.00,weatherlink.com 1.10,2013-03-16 07:23:00,
2013-03-16 03:38:00,28.4,27.0,29.78,SE,144,2.0,-999.0,95,-99.99,,,0.00,weatherlink.com 1.10,2013-03-16 07:38:00,
2013-03-16 03:53:00,28.0,27.0,29.77,SE,138,4.0,-999.0,95,-99.99,,,0.00,weatherlink.com 1.10,2013-03-16 07:53:00,
2013-03-16 04:08:00,27.9,27.0,29.78,SE,140,4.0,-999.0,95,-99.99,,,0.00,weatherlink.com 1.10,2013-03-16 08:08:00,
2013-03-16 04:23:00,27.9,27.0,29.78,SSE,165,5.0,-999.0,95,-99.99,,,0.00,weatherlink.com 1.10,2013-03-16 08:23:00,
2013-03-16 04:38:00,27.8,27.0,29.78,SE,138,4.0,-999.0,95,-99.99,,,0.00,weatherlink.com 1.10,2013-03-16 08:38:00,
2013-03-16 04:53:00,27.3,26.0,29.77,ESE,113,4.0,-999.0,95,-99.99,,,0.00,weatherlink.com 1.10,2013-03-16 08:53:00,
2013-03-16 05:08:00,27.1,26.0,29.77,South,170,6.0,-999.0,95,-99.99,,,0.00,weatherlink.com 1.10,2013-03-16 09:08:00,
2013-03-16 05:23:00,27.0,26.0,29.76,SE,124,6.0,-999.0,95,-99.99,,,0.00,weatherlink.com 1.10,2013-03-16 09:23:00,
2013-03-16 05:38:00,26.8,26.0,29.76,SSW,207,4.0,-999.0,95,-99.99,,,0.00,weatherlink.com 1.10,2013-03-16 09:38:00,
2013-03-16 05:53:00,26.7,26.0,29.76,SSE,152,4.0,-999.0,95,-99.99,,,0.00,weatherlink.com 1.10,2013-03-16 09:53:00,
2013-03-16 06:08:00,26.7,25.0,29.77,SE,134,2.0,-999.0,94,-99.99,,,0.00,weatherlink.com 1.10,2013-03-16 10:08:00,
2013-03-16 06:23:00,26.7,25.0,29.75,SE,125,4.0,-999.0,94,-99.99,,,0.00,weatherlink.com 1.10,2013-03-16 10:23:00,
2013-03-16 06:38:00,26.6,25.0,29.75,East,99,5.0,-999.0,94,-99.99,,,0.00,weatherlink.com 1.10,2013-03-16 10:38:00,
2013-03-16 06:53:00,26.6,25.0,29.76,SE,124,4.0,-999.0,94,-99.99,,,0.00,weatherlink.com 1.10,2013-03-16 10:53:00,
2013-03-16 07:08:00,26.6,25.0,29.75,SSE,148,4.0,-999.0,94,-99.99,,,0.00,weatherlink.com 1.10,2013-03-16 11:08:00,
2013-03-16 07:23:00,26.5,25.0,29.75,ESE,120,4.0,-999.0,94,-99.99,,,0.00,weatherlink.com 1.10,2013-03-16 11:23:00,
2013-03-16 07:38:00,26.5,25.0,29.75,SE,143,4.0,-999.0,94,-99.99,,,0.00,weatherlink.com 1.10,2013-03-16 11:38:00,
2013-03-16 07:53:00,26.5,25.0,29.76,SSE,158,2.0,-999.0,94,-99.99,,,0.00,weatherlink.com 1.10,2013-03-16 11:53:00,
2013-03-16 08:08:00,26.6,25.0,29.76,ESE,123,1.0,-999.0,94,-99.99,,,0.00,weatherlink.com 1.10,2013-03-16 12:08:00,
2013-03-16 08:23:00,26.6,25.0,29.75,ESE,120,4.0,-999.0,94,-99.99,,,0.00,weatherlink.com 1.10,2013-03-16 12:23:00,
2013-03-16 08:38:00,26.6,25.0,29.75,SE,136,4.0,-999.0,94,-99.99,,,0.00,weatherlink.com 1.10,2013-03-16 12:38:00,
2013-03-16 08:53:00,26.7,25.0,29.76,SSE,150,2.0,-999.0,94,-99.99,,,0.00,weatherlink.com 1.10,2013-03-16 12:53:00,
2013-03-16 09:08:00,26.9,25.0,29.77,ESE,103,2.0,-999.0,94,-99.99,,,0.00,weatherlink.com 1.10,2013-03-16 13:08:00,
2013-03-16 09:23:00,26.7,25.0,29.78,East,94,2.0,-999.0,93,-99.99,,,0.00,weatherlink.com 1.10,2013-03-16 13:23:00,
2013-03-16 09:38:00,26.4,25.0,29.79,East,85,2.0,-999.0,93,-99.99,,,0.00,weatherlink.com 1.10,2013-03-16 13:38:00,
2013-03-16 09:53:00,26.3,25.0,29.78,East,98,2.0,-999.0,93,-99.99,,,0.00,weatherlink.com 1.10,2013-03-16 13:53:00,
2013-03-16 10:08:00,26.0,24.0,29.79,ENE,74,2.0,-999.0,93,-99.99,,,0.00,weatherlink.com 1.10,2013-03-16 14:08:00,
2013-03-16 10:23:00,26.0,24.0,29.79,East,101,2.0,-999.0,93,-99.99,,,0.00,weatherlink.com 1.10,2013-03-16 14:23:00,
2013-03-16 10:38:00,26.2,25.0,29.79,SE,127,1.0,-999.0,93,-99.99,,,0.00,weatherlink.com 1.10,2013-03-16 14:38:00,
2013-03-16 10:53:00,26.4,25.0,29.78,East,92,1.0,-999.0,93,-99.99,,,0.00,weatherlink.com 1.10,2013-03-16 14:53:00,
2013-03-16 11:08:00,26.5,25.0,29.78,East,88,2.0,-999.0,93,-99.99,,,0.00,weatherlink.com 1.10,2013-03-16 15:08:00,
2013-03-16 11:23:00,26.7,25.0,29.79,ENE,71,1.0,-999.0,94,-99.99,,,0.00,weatherlink.com 1.10,2013-03-16 15:23:00,
2013-03-16 11:38:00,26.8,25.0,29.79,East,92,2.0,-999.0,94,-99.99,,,0.00,weatherlink.com 1.10,2013-03-16 15:38:00,
2013-03-16 11:53:00,26.7,25.0,29.80,East,94,1.0,-999.0,94,-99.99,,,0.00,weatherlink.com 1.10,2013-03-16 15:53:00,
2013-03-16 12:08:00,27.0,26.0,29.80,East,84,2.0,-999.0,94,-99.99,,,0.00,weatherlink.com 1.10,2013-03-16 16:08:00,
2013-03-16 12:23:00,27.2,26.0,29.81,SSE,150,4.0,-999.0,94,-99.99,,,0.00,weatherlink.com 1.10,2013-03-16 16:23:00,
2013-03-16 12:38:00,27.6,26.0,29.82,ESE,116,0.0,-999.0,94,-99.99,,,0.00,weatherlink.com 1.10,2013-03-16 16:38:00,
2013-03-16 12:54:00,27.5,26.0,29.84,East,82,2.0,-999.0,94,-99.99,,,0.00,weatherlink.com 1.10,2013-03-16 16:54:00,
2013-03-16 13:09:00,27.5,26.0,29.84,East,92,0.0,-999.0,94,-99.99,,,0.00,weatherlink.com 1.10,2013-03-16 17:09:00,
2013-03-16 13:24:00,27.9,26.0,29.85,NE,51,2.0,-999.0,94,-99.99,,,0.00,weatherlink.com 1.10,2013-03-16 17:24:00,
2013-03-16 13:39:00,27.8,26.0,29.86,East,89,2.0,-999.0,94,-99.99,,,0.00,weatherlink.com 1.10,2013-03-16 17:39:00,
2013-03-16 13:54:00,28.1,27.0,29.86,East,97,1.0,-999.0,94,-99.99,,,0.00,weatherlink.com 1.10,2013-03-16 17:54:00,
2013-03-16 14:09:00,28.4,27.0,29.87,ESE,111,2.0,-999.0,94,-99.99,,,0.00,weatherlink.com 1.10,2013-03-16 18:09:00,
2013-03-16 14:24:00,28.8,27.0,29.87,East,84,0.0,-999.0,93,-99.99,,,0.00,weatherlink.com 1.10,2013-03-16 18:24:00,
2013-03-16 14:39:00,28.9,27.0,29.87,NNE,26,3.0,-999.0,93,-99.99,,,0.00,weatherlink.com 1.10,2013-03-16 18:39:00,
2013-03-16 14:54:00,29.1,27.0,29.88,East,85,3.0,-999.0,92,-99.99,,,0.00,weatherlink.com 1.10,2013-03-16 18:54:00,
2013-03-16 15:09:00,28.9,26.0,29.88,ENE,69,2.0,-999.0,90,-99.99,,,0.00,weatherlink.com 1.10,2013-03-16 19:09:00,
2013-03-16 15:24:00,29.1,27.0,29.88,ENE,61,2.0,-999.0,90,-99.99,,,0.01,weatherlink.com 1.10,2013-03-16 19:24:00,
2013-03-16 15:39:00,29.2,27.0,29.88,ESE,109,4.0,-999.0,90,-99.99,,,0.02,weatherlink.com 1.10,2013-03-16 19:39:00,
2013-03-16 15:54:00,29.6,27.0,29.89,East,80,2.0,-999.0,90,-99.99,,,0.03,weatherlink.com 1.10,2013-03-16 19:54:00,
2013-03-16 16:09:00,29.7,27.0,29.89,NE,53,0.0,-999.0,89,-99.99,,,0.04,weatherlink.com 1.10,2013-03-16 20:09:00,
2013-03-16 16:24:00,29.9,27.0,29.89,ESE,103,1.0,-999.0,89,-99.99,,,0.04,weatherlink.com 1.10,2013-03-16 20:24:00,
2013-03-16 16:39:00,30.0,27.0,29.90,ENE,78,1.0,-999.0,89,-99.99,,,0.04,weatherlink.com 1.10,2013-03-16 20:39:00,
2013-03-16 16:54:00,29.7,26.0,29.90,ENE,62,3.0,-999.0,87,-99.99,,,0.05,weatherlink.com 1.10,2013-03-16 20:54:00,
2013-03-16 17:09:00,29.6,26.0,29.91,ENE,78,2.0,-999.0,87,-99.99,,,0.05,weatherlink.com 1.10,2013-03-16 21:09:00,
2013-03-16 17:24:00,29.4,26.0,29.91,NNE,23,1.0,-999.0,85,-99.99,,,0.06,weatherlink.com 1.10,2013-03-16 21:24:00,
2013-03-16 17:39:00,29.3,25.0,29.91,NE,49,0.0,-999.0,85,-99.99,,,0.06,weatherlink.com 1.10,2013-03-16 21:39:00,
2013-03-16 17:54:00,29.2,25.0,29.92,ENE,72,1.0,-999.0,84,-99.99,,,0.06,weatherlink.com 1.10,2013-03-16 21:54:00,
2013-03-16 18:09:00,28.9,24.0,29.94,East,87,2.0,-999.0,83,-99.99,,,0.06,weatherlink.com 1.10,2013-03-16 22:09:00,
2013-03-16 18:24:00,28.9,24.0,29.94,ENE,73,2.0,-999.0,83,-99.99,,,0.06,weatherlink.com 1.10,2013-03-16 22:24:00,
2013-03-16 18:39:00,28.8,24.0,29.95,ENE,62,3.0,-999.0,83,-99.99,,,0.06,weatherlink.com 1.10,2013-03-16 22:39:00,
2013-03-16 18:54:00,28.6,24.0,29.96,ENE,65,3.0,-999.0,83,-99.99,,,0.06,weatherlink.com 1.10,2013-03-16 22:54:00,
2013-03-16 19:09:00,28.4,24.0,29.96,ESE,105,2.0,-999.0,82,-99.99,,,0.06,weatherlink.com 1.10,2013-03-16 23:09:00,
2013-03-16 19:24:00,28.3,23.0,29.96,East,86,2.0,-999.0,81,-99.99,,,0.06,weatherlink.com 1.10,2013-03-16 23:24:00,
2013-03-16 19:39:00,28.3,23.0,29.96,ESE,106,0.0,-999.0,81,-99.99,,,0.06,weatherlink.com 1.10,2013-03-16 23:39:00,
2013-03-16 19:54:00,28.2,23.0,29.96,ESE,107,1.0,-999.0,81,-99.99,,,0.06,weatherlink.com 1.10,2013-03-16 23:54:00,
2013-03-16 20:09:00,28.1,23.0,29.97,ESE,107,0.0,-999.0,82,-99.99,,,0.06,weatherlink.com 1.10,2013-03-17 00:09:00,
2013-03-16 20:24:00,28.1,23.0,29.97,ESE,107,0.0,-999.0,82,-99.99,,,0.06,weatherlink.com 1.10,2013-03-17 00:24:00,
2013-03-16 20:39:00,28.4,23.0,29.97,West,275,2.0,-999.0,81,-99.99,,,0.06,weatherlink.com 1.10,2013-03-17 00:39:00,
2013-03-16 20:54:00,28.1,23.0,29.98,West,262,2.0,-999.0,82,-99.99,,,0.06,weatherlink.com 1.10,2013-03-17 00:54:00,
2013-03-16 21:09:00,27.9,23.0,29.98,WSW,247,3.0,-999.0,82,-99.99,,,0.06,weatherlink.com 1.10,2013-03-17 01:09:00,
2013-03-16 21:24:00,28.0,24.0,29.99,WNW,285,2.0,-999.0,83,-99.99,,,0.06,weatherlink.com 1.10,2013-03-17 01:24:00,
2013-03-16 21:39:00,28.0,24.0,29.98,West,259,3.0,-999.0,83,-99.99,,,0.06,weatherlink.com 1.10,2013-03-17 01:39:00,
2013-03-16 21:54:00,28.0,24.0,29.98,WSW,248,3.0,-999.0,83,-99.99,,,0.06,weatherlink.com 1.10,2013-03-17 01:54:00,
2013-03-16 22:09:00,27.9,23.0,29.98,WSW,249,3.0,-999.0,83,-99.99,,,0.06,weatherlink.com 1.10,2013-03-17 02:09:00,
2013-03-16 22:24:00,27.9,24.0,30.00,NW,314,4.0,-999.0,84,-99.99,,,0.06,weatherlink.com 1.10,2013-03-17 02:24:00,
2013-03-16 22:39:00,27.8,24.0,30.00,WNW,295,2.0,-999.0,84,-99.99,,,0.06,weatherlink.com 1.10,2013-03-17 02:39:00,
2013-03-16 22:54:00,27.9,24.0,30.00,WNW,297,6.0,-999.0,85,-99.99,,,0.06,weatherlink.com 1.10,2013-03-17 02:54:00,
2013-03-16 23:09:00,28.0,24.0,30.01,NW,322,4.0,-999.0,85,-99.99,,,0.06,weatherlink.com 1.10,2013-03-17 03:09:00,
2013-03-16 23:24:00,28.1,25.0,30.01,WNW,287,5.0,-999.0,86,-99.99,,,0.06,weatherlink.com 1.10,2013-03-17 03:24:00,
2013-03-16 23:39:00,28.1,25.0,30.02,West,277,4.0,-999.0,86,-99.99,,,0.06,weatherlink.com 1.10,2013-03-17 03:39:00,
2013-03-16 23:54:00,28.2,25.0,30.01,NW,311,2.0,-999.0,86,-99.99,,,0.06,weatherlink.com 1.10,2013-03-17 03:54:00,